N5JNG Weather Reports


Display with metric or nautical units.
time (UTC)temp
F
wind
direction
speed
MPH
gust
MPH
rain 1hr
in
rain 24hr
in
rain mn
in
humidity
%
barometer
mb
20260506090939 80 132 7.0 12.0 0.00 0.00 0.00 100 1006.2
20260506090440 80 111 7.0 12.0 0.00 0.00 0.00 100 1006.1
20260506085940 80 126 8.0 12.0 0.00 0.00 0.00 100 1006.1
20260506085440 80 124 8.0 14.0 0.00 0.00 0.00 100 1006.0
20260506084940 80 128 8.0 14.0 0.00 0.00 0.00 100 1006.1
20260506084439 80 148 8.0 11.0 0.00 0.00 0.00 100 1006.0
20260506083939 80 118 7.0 12.0 0.00 0.00 0.00 100 1006.1
20260506083440 80 142 7.0 12.0 0.00 0.00 0.00 100 1006.1
20260506082940 80 121 7.0 11.0 0.00 0.00 0.00 100 1006.1
20260506080936 80 109 8.0 13.0 0.00 0.00 0.00 100 1006.1
20260506080436 80 117 7.0 13.0 0.00 0.00 0.00 100 1006.2
20260506073436 80 128 7.0 15.0 0.00 0.00 0.00 100 1006.5
20260506072936 80 155 7.0 12.0 0.00 0.00 0.00 100 1006.6
20260506071934 80 161 6.0 11.0 0.00 0.00 0.00 100 1006.9
20260506071434 80 130 6.0 12.0 0.00 0.00 0.00 100 1006.9
20260506070934 80 146 6.0 13.0 0.00 0.00 0.00 100 1007.0
20260506070434 80 144 7.0 13.0 0.00 0.00 0.00 100 1006.9
20260506062434 80 160 8.0 15.0 0.00 0.00 0.00 100 1007.1
20260506061934 80 128 8.0 15.0 0.00 0.00 0.00 100 1007.2
20260506061432 80 131 8.0 15.0 0.00 0.00 0.00 100 1007.3
20260506060932 80 146 8.0 15.0 0.00 0.00 0.00 100 1007.2
20260506060433 80 137 8.0 13.0 0.00 0.00 0.00 100 1007.2
20260506050929 80 161 7.0 12.0 0.00 0.00 0.00 100 1007.1
20260506050427 80 152 9.0 15.0 0.00 0.00 0.00 100 1007.0
20260506044927 80 121 8.0 14.0 0.00 0.00 0.00 100 1007.2
20260506043427 80 132 9.0 13.0 0.00 0.00 0.00 100 1007.1
20260506042927 80 146 10.0 19.0 0.00 0.00 0.00 100 1007.2
20260506041926 81 138 9.0 14.0 0.00 0.00 0.00 100 1007.2
20260506040927 81 138 8.0 16.0 0.00 0.00 0.00 100 1007.2
20260506035927 81 148 9.0 15.0 0.00 0.00 0.00 100 1007.1
20260506035427 81 146 9.0 16.0 0.00 0.00 0.00 100 1007.2
20260506034926 81 147 8.0 16.0 0.00 0.00 0.00 100 1007.0
20260506034426 81 134 9.0 18.0 0.00 0.00 0.00 100 1007.0
20260506033927 81 150 10.0 18.0 0.00 0.00 0.00 100 1006.9
20260506033427 81 117 10.0 18.0 0.00 0.00 0.00 100 1006.9
20260506032926 81 113 9.0 18.0 0.00 0.00 0.00 100 1006.9
20260506032426 81 155 9.0 16.0 0.00 0.00 0.00 100 1006.7
20260506031427 80 130 8.0 15.0 0.00 0.00 0.00 100 1006.7
20260506030926 80 129 9.0 15.0 0.00 0.00 0.00 100 1006.6
20260506025926 80 150 10.0 16.0 0.00 0.00 0.00 100 1006.4
20260506025427 80 131 9.0 18.0 0.00 0.00 0.00 100 1006.4
20260506024926 80 140 9.0 18.0 0.00 0.00 0.00 100 1006.4
20260506024426 80 120 10.0 16.0 0.00 0.00 0.00 100 1006.3
20260506023927 80 119 11.0 19.0 0.00 0.00 0.00 100 1006.2
20260506022926 80 124 10.0 14.0 0.00 0.00 0.00 100 1006.1
20260506022426 81 123 10.0 16.0 0.00 0.00 0.00 100 1006.1
20260506021927 81 121 11.0 18.0 0.00 0.00 0.00 100 1006.0
20260506021427 81 144 11.0 18.0 0.00 0.00 0.00 100 1005.9
20260506020926 81 121 11.0 18.0 0.00 0.00 0.00 100 1005.9
20260506020427 81 133 10.0 18.0 0.00 0.00 0.00 100 1005.9
20260506015927 81 117 11.0 18.0 0.00 0.00 0.00 100 1005.9
20260506015428 81 134 11.0 16.0 0.00 0.00 0.00 100 1005.9
20260506014927 81 113 10.0 18.0 0.00 0.00 0.00 100 1005.9
20260506014428 81 126 10.0 18.0 0.00 0.00 0.00 100 1005.8
20260506013927 81 110 11.0 18.0 0.00 0.00 0.00 100 1005.5
20260506013428 81 113 11.0 16.0 0.00 0.00 0.00 100 1005.5
20260506012928 81 111 12.0 19.0 0.00 0.00 0.00 100 1005.4
20260506012427 81 119 13.0 21.0 0.00 0.00 0.00 100 1005.3
20260506011928 81 126 11.0 21.0 0.00 0.00 0.00 100 1005.3
20260506011428 81 118 11.0 18.0 0.00 0.00 0.00 100 1005.2
20260506010927 81 127 12.0 18.0 0.00 0.00 0.00 100 1005.1
20260506005928 81 108 11.0 20.0 0.00 0.00 0.00 100 1005.0
20260506005425 81 117 11.0 20.0 0.00 0.00 0.00 100 1005.0
20260506004924 81 153 12.0 19.0 0.00 0.00 0.00 100 1004.9
20260506004424 81 127 13.0 22.0 0.00 0.00 0.00 100 1004.9
20260506003925 81 128 13.0 22.0 0.00 0.00 0.00 100 1004.9
20260506003424 81 137 13.0 20.0 0.00 0.00 0.00 100 1004.8
20260506002925 82 114 12.0 20.0 0.00 0.00 0.00 100 1004.7
20260506002425 82 128 13.0 20.0 0.00 0.00 0.00 100 1004.8
20260506001424 82 123 13.0 21.0 0.00 0.00 0.00 100 1004.8
20260506000924 82 117 14.0 21.0 0.00 0.00 0.00 100 1004.8
20260505235923 82 132 14.0 23.0 0.00 0.00 0.00 100 1004.9
20260505235422 82 134 14.0 23.0 0.00 0.00 0.00 100 1004.8
20260505234423 83 128 15.0 23.0 0.00 0.00 0.00 100 1004.7
20260505233923 83 125 15.0 24.0 0.00 0.00 0.00 100 1004.7
20260505232923 83 128 13.0 22.0 0.00 0.00 0.00 100 1004.8
20260505232423 83 121 13.0 23.0 0.00 0.00 0.00 100 1005.0
20260505231922 83 121 13.0 23.0 0.00 0.00 0.00 100 1005.1
20260505230921 83 130 14.0 23.0 0.00 0.00 0.00 100 1005.1
20260505230421 83 132 13.0 21.0 0.00 0.00 0.00 100 1005.1
20260505225921 84 138 12.0 21.0 0.00 0.00 0.00 100 1005.2
20260505225420 84 131 12.0 20.0 0.00 0.00 0.00 100 1005.1
20260505224920 84 130 13.0 21.0 0.00 0.00 0.00 100 1005.2
20260505224421 84 134 13.0 22.0 0.00 0.00 0.00 100 1005.0
20260505223921 84 145 13.0 22.0 0.00 0.00 0.00 100 1005.1
20260505223421 84 132 12.0 21.0 0.00 0.00 0.00 100 1005.2
20260505222920 84 156 12.0 21.0 0.00 0.00 0.00 100 1005.2
20260505222419 84 130 12.0 21.0 0.00 0.00 0.00 100 1005.3
20260505221919 84 111 13.0 22.0 0.00 0.00 0.00 100 1005.2
20260505221419 84 128 13.0 22.0 0.00 0.00 0.00 100 1005.2
20260505220919 84 134 13.0 23.0 0.00 0.00 0.00 100 1005.2
20260505215919 84 161 14.0 26.0 0.00 0.00 0.00 100 1005.3
20260505215419 85 151 12.0 26.0 0.00 0.00 0.00 100 1005.3
20260505214419 85 119 13.0 23.0 0.00 0.00 0.00 100 1005.2
20260505213918 85 121 14.0 23.0 0.00 0.00 0.00 100 1005.3
20260505213417 85 137 13.0 22.0 0.00 0.00 0.00 100 1005.4
20260505212917 85 130 13.0 23.0 0.00 0.00 0.00 100 1005.6
20260505212417 84 154 13.0 25.0 0.00 0.00 0.00 100 1005.7
20260505211917 84 175 14.0 25.0 0.00 0.00 0.00 100 1005.8
20260505211417 84 146 13.0 23.0 0.00 0.00 0.00 100 1005.8
20260505210417 85 144 12.0 22.0 0.00 0.00 0.00 100 1006.0
20260505205917 84 173 12.0 21.0 0.00 0.00 0.00 100 1006.0
20260505204916 85 139 11.0 21.0 0.00 0.00 0.00 100 1006.4
20260505204416 85 131 12.0 22.0 0.00 0.00 0.00 100 1006.4
20260505203916 85 160 12.0 22.0 0.00 0.00 0.00 100 1006.3
20260505203415 85 139 11.0 20.0 0.00 0.00 0.00 100 1006.4
20260505202915 85 163 11.0 20.0 0.00 0.00 0.00 100 1006.4
20260505201915 85 142 12.0 22.0 0.00 0.00 0.00 100 1006.6
20260505200915 85 157 11.0 22.0 0.00 0.00 0.00 100 1006.6
20260505200415 85 134 11.0 22.0 0.00 0.00 0.00 100 1006.6
20260505195915 85 134 11.0 21.0 0.00 0.00 0.00 100 1006.7
20260505195413 85 166 12.0 21.0 0.00 0.00 0.00 100 1006.8
20260505194913 85 137 12.0 25.0 0.00 0.00 0.00 100 1006.8
20260505194413 85 133 14.0 25.0 0.00 0.00 0.00 100 1006.9
20260505193912 86 179 15.0 25.0 0.00 0.00 0.00 100 1007.0
20260505193413 86 148 14.0 25.0 0.00 0.00 0.00 100 1007.0
20260505192913 86 204 13.0 25.0 0.00 0.00 0.00 100 1007.0
20260505192413 86 161 13.0 26.0 0.00 0.00 0.00 100 1007.0
20260505191913 86 203 15.0 26.0 0.00 0.00 0.00 100 1007.2
20260505191413 85 171 15.0 26.0 0.00 0.00 0.00 100 1007.3
20260505190912 85 142 14.0 22.0 0.00 0.00 0.00 100 1007.2
20260505190411 85 208 12.0 23.0 0.00 0.00 0.00 100 1007.1
20260505185911 85 175 13.0 25.0 0.00 0.00 0.00 100 1007.1
20260505185411 85 171 13.0 25.0 0.00 0.00 0.00 100 1007.0
20260505184911 85 130 12.0 23.0 0.00 0.00 0.00 100 1007.1
20260505184411 84 173 12.0 24.0 0.00 0.00 0.00 100 1007.0
20260505183911 83 137 12.0 24.0 0.00 0.00 0.00 100 1007.1
20260505183411 83 141 12.0 24.0 0.00 0.00 0.00 100 1007.2
20260505182411 83 178 13.0 25.0 0.00 0.00 0.00 100 1007.4
20260505181911 84 158 13.0 24.0 0.00 0.00 0.00 100 1007.3
20260505181409 83 167 14.0 24.0 0.00 0.00 0.00 100 1007.4
20260505180909 83 157 15.0 24.0 0.00 0.00 0.00 100 1007.5
20260505175909 83 167 14.0 22.0 0.00 0.00 0.00 100 1007.6
20260505175409 83 163 16.0 23.0 0.00 0.00 0.00 100 1007.7
20260505174910 84 167 14.0 24.0 0.00 0.00 0.00 100 1007.6
20260505174409 84 168 13.0 24.0 0.00 0.00 0.00 100 1007.7
20260505173409 84 157 14.0 23.0 0.00 0.00 0.00 100 1007.8
20260505172908 84 144 14.0 24.0 0.00 0.00 0.00 100 1007.8
20260505172407 84 195 15.0 26.0 0.00 0.00 0.00 100 1007.9
20260505171908 83 175 14.0 26.0 0.00 0.00 0.00 100 1007.8
20260505171407 83 165 13.0 24.0 0.00 0.00 0.00 100 1007.9
20260505170907 83 180 13.0 25.0 0.00 0.00 0.00 100 1008.0
20260505170407 83 147 12.0 25.0 0.00 0.00 0.00 100 1008.0
20260505165907 83 193 11.0 21.0 0.00 0.00 0.00 100 1008.1
20260505165407 83 163 11.0 22.0 0.00 0.00 0.00 100 1008.1
20260505164907 83 147 12.0 22.0 0.00 0.00 0.00 100 1008.1
20260505164407 83 152 11.0 19.0 0.00 0.00 0.00 100 1008.2
20260505163906 83 155 11.0 18.0 0.00 0.00 0.00 100 1008.3
20260505163405 83 170 10.0 18.0 0.00 0.00 0.00 100 1008.2
20260505162905 83 167 11.0 19.0 0.00 0.00 0.00 100 1008.1
20260505162405 83 198 12.0 22.0 0.00 0.00 0.00 100 1008.1
20260505161905 83 157 11.0 22.0 0.00 0.00 0.00 100 1008.0
20260505160905 83 151 12.0 22.0 0.00 0.00 0.00 100 1007.9
20260505152903 81 175 13.0 21.0 0.00 0.00 0.00 100 1007.7
20260505152403 81 192 11.0 21.0 0.00 0.00 0.00 100 1007.7
20260505151904 81 160 11.0 19.0 0.00 0.00 0.00 100 1007.7
20260505151403 81 171 11.0 20.0 0.00 0.00 0.00 100 1007.6
20260505150903 81 167 11.0 20.0 0.00 0.00 0.00 100 1007.7
20260505150403 81 186 12.0 22.0 0.00 0.00 0.00 100 1007.7
20260505140400 80 165 10.0 20.0 0.00 0.00 0.00 100 1007.5
20260505124355 79 167 10.0 15.0 0.00 0.00 0.00 100 1007.3
20260505123855 79 170 10.0 18.0 0.00 0.00 0.00 100 1007.3
20260505123356 79 188 9.0 18.0 0.00 0.00 0.00 100 1007.3
20260505122856 79 178 8.0 15.0 0.00 0.00 0.00 100 1007.2
20260505122355 78 161 9.0 16.0 0.00 0.00 0.00 100 1007.2
20260505121855 78 140 9.0 16.0 0.00 0.00 0.00 100 1007.2
20260505121355 78 163 9.0 15.0 0.00 0.00 0.00 100 1007.2
20260505120856 78 156 9.0 15.0 0.00 0.00 0.00 100 1007.1
20260505120356 78 175 8.0 14.0 0.00 0.00 0.00 100 1007.1
20260505115855 78 157 8.0 14.0 0.00 0.00 0.00 100 1007.0
20260505115355 78 142 7.0 14.0 0.00 0.00 0.00 100 1007.0
20260505114856 78 128 8.0 14.0 0.00 0.00 0.00 100 1007.0
20260505113855 78 179 8.0 15.0 0.00 0.00 0.00 100 1007.0
20260505112853 78 171 8.0 15.0 0.00 0.00 0.00 100 1006.9
20260505112354 78 159 8.0 14.0 0.00 0.00 0.00 100 1006.9
20260505111854 78 159 8.0 15.0 0.00 0.00 0.00 100 1006.9
20260505111354 78 171 8.0 15.0 0.00 0.00 0.00 100 1006.8
20260505110853 78 157 7.0 13.0 0.00 0.00 0.00 100 1006.8
20260505110352 78 155 7.0 14.0 0.00 0.00 0.00 100 1006.9
20260505101847 78 156 8.0 15.0 0.00 0.00 0.00 100 1006.9
20260505101345 78 125 8.0 15.0 0.00 0.00 0.00 100 1006.8
20260505100346 78 142 7.0 13.0 0.00 0.00 0.00 100 1006.9
20260505095846 78 183 8.0 13.0 0.00 0.00 0.00 100 1007.0
20260505095343 78 170 8.0 12.0 0.00 0.00 0.00 100 1006.9
20260505094849 78 167 8.0 13.0 0.00 0.00 0.00 100 1006.8
20260505093843 77 181 8.0 14.0 0.00 0.00 0.00 100 1006.9
20260505093343 78 186 8.0 14.0 0.00 0.00 0.00 100 1006.9
20260505092844 78 191 9.0 14.0 0.00 0.00 0.00 100 1007.0
20260505092344 77 153 9.0 14.0 0.00 0.00 0.00 100 1007.0
20260505091843 77 168 8.0 14.0 0.00 0.00 0.00 100 1006.9